User: anonymous   Login
Location: Unspecified
(0.0000°N, 0.0000°E)
Time: 02:44:44
(UTC+00:00)
Language:

FORMOSAT 3B - Orbit

View from above orbital plane
View from above orbital plane
View from above satellite
View from above satellite

Ground track
Ground track

The orbit data is extracted from the following two-line orbital elements,

1 29048U 06011B   19054.79388374  .00000047  00000-0  34801-4 0  9990
2 29048  71.9656 280.4012 0042589 127.6145 232.8869 14.28615262675306
Epoch (UTC): 23 February 2019 19:03:11
Eccentricity: 0.0042589
inclination: 71.9656°
perigee height: 766 km
apogee height: 827 km
right ascension of ascending node: 280.4012°
argument of perigee: 127.6145°
revolutions per day: 14.28615262
mean anomaly at epoch: 232.8869°
orbit number at epoch: 67530

The dashed part of the orbit path shows where the satellite is in the earth's shadow,  

DLR